SCP
0 0 0 0 0 0 0 0 0 0 0 0 0 0 0 0 0 0 0 0 0 0 0 0 0 1 1 1 1 1 1 1 1 1 1 0 0 0 0 0 0 0 0
0 0 0 0 0 0 0 0 0 0 0 0 0 0 0 0 0 0 0 0 0 0 0 0 0 0 1 1 1 1 1 1 1 1 1 0 0 0 0 0 0 0 0
0 0 0 0 0 0 0 0 0 0 0 0 0 0 0 0 0 0 0 0 0 0 0 0 0 0 0 1 1 1 1 1 1 1 1 1 0 0 0 0 0 0 0
0 0 0 0 0 0 0 0 0 0 0 0 0 0 0 0 0 0 0 0 0 0 0 0 0 0 0 0 0 0 0 0 0 0 0 0 0 0 0 0 0 0 0
0 0 0 0 0 0 0 0 0 0 0 0 0 0 0 0 0 0 0 0 0 0 0 0 0 0 0 0 0 0 0 0 0 0 0 0 0 0 0 0 0 0 0
0 0 0 0 0 0 0 0 0 0 0 0 0 0 0 0 0 0 0 0 0 0 0 0 0 0 0 0 0 0 0 0 0 0 0 0 0 0 0 0 0 0 0
0 0 0 0 0 0 0 0 0 0 0 0 0 0 0 0 0 0 0 0 0 0 0 0 0 0 0 0 0 0 0 0 0 0 0 0 0 0 0 0 0 0 0
0 0 0 0 0 0 0 0 0 0 0 0 0 0 0 0 0 0 0 0 0 0 0 0 0 0 0 0 0 0 0 0 0 0 0 0 0 0 0 0 0 0 0
0 0 0 0 0 0 0 0 0 0 0 0 0 0 0 0 0 0 0 0 0 0 0 0 0 0 0 0 0 0 0 0 0 0 0 0 0 0 0 0 0 0 0
0 0 0 0 0 0 0 0 0 0 0 0 0 0 0 0 0 0 0 0 0 0 0 0 0 0 0 0 0 0 0 0 0 0 0 0 0 0 0 0 0 0 0
0 0 0 0 0 0 0 0 0 0 0 0 0 0 0 0 0 0 0 0 0 0 0 0 0 0 0 0 0 0 0 0 0 0 0 0 0 0 0 0 0 0 0
0 0 0 0 0 0 0 0 0 0 0 0 0 0 0 0 0 0 0 0 0 0 0 0 0 0 0 0 0 0 0 0 0 0 0 0 0 0 0 0 0 0 0
0 0 0 0 0 0 0 0 0 0 0 0 0 0 0 0 0 0 0 0 0 0 0 0 0 0 0 0 0 0 0 0 0 0 0 0 0 0 0 0 0 0 0
0 0 0 0 0 0 0 0 0 0 0 0 0 0 0 0 0 0 0 0 0 0 0 0 0 0 0 0 0 0 0 0 0 0 0 0 0 0 0 0 0 0 0
0 0 0 0 0 0 0 0 0 0 0 0 0 0 0 0 0 0 0 0 0 0 0 0 0 0 0 0 0 0 0 0 0 0 0 0 0 0 0 0 0 0 0
0 0 0 0 0 0 0 0 0 0 0 0 0 0 0 0 0 0 0 0 0 0 0 0 0 0 0 0 0 0 0 0 0 0 0 0 0 0 0 0 0 0 0
0 0 0 0 0 0 0 0 0 0 0 0 0 0 0 0 0 0 0 0 0 0 0 0 0 0 0 0 0 0 0 0 0 0 0 0 0 0 0 0 0 0 0
0 0 0 0 0 0 0 0 0 0 0 0 0 0 0 0 0 0 0 0 0 0 0 0 0 0 0 0 0 0 0 0 0 0 0 0 0 0 0 0 0 0 0
0 0 0 0 0 0 0 0 0 0 0 0 0 0 0 0 0 0 0 0 0 0 0 0 0 0 0 0 0 0 0 0 0 0 0 0 0 0 0 0 0 0 0
0 0 0 0 0 0 0 0 0 0 0 0 0 0 0 0 0 0 0 0 0 0 0 0 0 0 0 0 0 0 0 0 0 0 0 0 0 0 0 0 0 0 0
0 0 0 0 0 0 0 0 0 0 0 0 0 0 0 0 0 0 0 0 0 0 0 0 0 0 0 0 0 0 0 0 0 0 0 0 0 0 0 0 0 0 0
0 0 0 0 0 0 0 0 0 0 0 0 0 0 0 0 0 0 0 0 0 0 0 0 0 0 0 0 0 0 0 0 0 0 0 0 0 0 0 0 0 0 0
0 0 0 0 0 0 0 0 0 0 0 0 0 0 0 0 0 0 0 0 0 0 0 0 0 0 0 0 0 0 0 0 0 0 0 0 0 0 0 0 0 0 0
0 0 0 0 0 0 0 0 0 0 0 0 0 0 0 0 0 0 0 0 0 0 0 0 0 0 0 0 0 0 0 0 0 0 0 0 0 0 0 0 0 0 0
0 0 0 0 0 0 0 0 0 0 0 0 0 0 0 0 0 0 0 0 0 0 0 0 0 0 0 0 0 0 0 0 0 0 0 0 0 0 0 0 0 0 0
0 0 0 0 0 0 0 0 0 0 0 0 0 0 0 0 0 0 0 0 0 0 0 0 0 0 0 0 0 0 0 0 0 0 0 0 0 0 0 0 0 0 0
Wind_Speed
13 13 12 13 12 12 12 12 12 12 11 11 11 10 10 9 9 8 10 9 9 9 9 10 10 10 7 7 7 8 8 8 9 7 4 4 5 5 4 4 4 4 3
14 14 14 14 14 14 14 13 13 13 13 13 12 11 12 12 11 11 11 10 10 10 10 10 11 9 10 9 7 9 8 8 9 9 6 5 7 6 5 5 4 3 1
15 15 15 15 15 14 14 14 14 14 13 14 13 13 13 12 12 12 12 11 10 10 10 11 11 11 11 9 9 9 8 8 8 9 8 5 5 6 6 5 4 3 2
16 16 16 15 15 15 15 14 14 14 14 14 14 14 14 14 13 13 13 12 11 11 10 10 11 11 11 11 10 10 9 9 8 9 8 7 6 7 6 6 5 4 3
16 16 16 16 15 14 14 14 13 13 14 14 14 14 14 13 13 13 13 13 12 11 11 11 11 9 7 8 8 9 9 9 9 9 9 7 7 7 7 7 5 4 3
16 17 16 15 15 15 14 14 14 13 13 13 14 14 14 12 10 9 11 12 12 12 11 11 10 10 10 10 11 10 10 10 10 10 9 9 9 9 7 7 6 5 4
16 16 16 15 15 14 14 14 13 13 12 12 13 13 14 12 8 10 11 12 13 12 12 11 11 10 10 11 12 15 14 14 13 12 12 10 10 10 9 9 8 7 4
16 15 15 14 14 13 13 12 12 11 11 10 11 12 12 11 10 11 11 13 13 13 13 12 12 11 10 9 10 11 13 14 14 14 13 11 10 8 9 9 7 6 4
15 15 15 14 13 13 12 11 10 10 9 9 10 11 11 10 10 12 13 11 12 14 13 13 12 12 9 8 11 12 12 11 11 11 10 8 5 5 6 6 8 8 6
15 15 15 14 13 13 12 11 9 9 9 8 9 9 10 10 9 11 13 10 11 11 11 11 11 12 8 9 11 12 12 11 10 10 10 9 9 9 10 10 9 9 7
15 15 14 13 12 11 10 9 9 8 8 7 8 8 8 7 7 10 12 9 10 10 9 9 8 12 11 10 11 11 10 8 9 9 9 9 9 9 11 11 9 8 8
14 14 13 12 11 9 8 8 8 7 7 6 6 7 6 6 6 8 11 12 9 9 8 7 4 9 10 10 10 9 7 7 8 8 8 8 9 9 10 10 10 8 5
14 13 12 12 9 9 8 7 6 5 5 4 4 4 4 4 4 7 10 11 11 9 6 3 1 6 8 10 12 10 9 9 8 8 8 8 8 8 8 7 7 6 6
13 12 11 10 9 8 6 5 4 4 4 3 3 3 3 2 3 4 7 8 10 10 9 7 8 7 8 7 7 10 10 9 8 8 8 7 6 7 8 8 9 9 7
13 11 10 9 8 7 5 4 4 3 3 4 3 2 2 1 2 3 2 2 3 3 5 6 6 6 7 7 7 8 8 8 8 8 7 7 7 7 8 8 8 9 8
10 10 8 7 6 5 5 3 2 3 3 2 2 3 2 2 2 2 2 2 1 1 4 5 5 6 6 6 6 7 7 8 8 8 7 7 8 8 8 8 8 9 9
10 9 7 7 6 5 5 4 2 2 3 3 3 2 2 2 1 1 0 1 2 3 5 5 5 5 5 5 5 6 6 7 7 7 7 8 8 8 8 9 9 9 9
10 8 7 6 5 5 5 4 3 2 1 2 4 3 1 0 1 1 2 3 4 5 5 4 4 4 4 4 4 5 5 6 6 6 7 7 8 8 8 9 9 10 10
9 7 7 6 5 4 4 4 3 3 3 3 3 4 2 3 4 3 4 4 3 3 3 3 4 4 3 4 4 4 5 5 6 6 7 7 7 8 8 8 8 11 11
6 8 9 6 5 4 4 4 4 3 3 3 2 2 1 2 2 2 3 3 2 1 1 2 2 2 2 3 3 4 5 5 6 6 7 7 7 8 9 10 10 10 10
7 6 6 5 5 5 4 4 4 4 3 3 3 4 6 3 1 0 1 0 0 0 0 1 1 2 2 3 4 5 6 6 5 6 7 8 8 9 9 9 10 10 10
6 6 6 6 5 5 5 4 4 4 4 4 3 3 2 3 2 2 2 2 2 1 0 1 2 3 3 4 5 5 7 7 7 7 8 8 9 9 10 10 10 10 11
6 6 5 5 5 4 4 5 5 5 4 4 3 3 2 2 2 3 3 3 2 2 1 1 3 4 4 4 5 6 7 7 7 8 8 8 8 9 9 10 11 12 12
6 6 6 5 5 5 5 5 5 5 5 5 4 4 4 3 3 4 3 3 3 3 3 3 4 6 8 6 5 6 6 6 7 8 10 10 9 9 9 10 11 13 12
6 5 5 5 5 5 6 6 6 6 5 5 5 5 4 4 3 4 3 3 4 4 5 5 5 6 8 9 9 8 7 5 3 5 9 9 10 9 10 11 10 11 11
6 6 5 5 5 5 6 6 6 6 6 6 6 5 5 4 4 4 4 4 5 6 7 7 9 9 9 9 11 10 7 6 4 3 5 8 9 9 9 9 11 10 11
Wind_Direction
303 299 294 287 283 277 270 267 265 262 258 250 245 243 239 238 238 238 248 248 244 246 244 242 238 242 242 239 235 235 236 239 247 247 221 189 196 227 208 218 219 228 187
305 300 294 289 284 277 271 268 264 261 258 252 248 247 243 240 237 239 244 247 246 247 247 246 243 238 232 238 238 236 234 235 241 244 233 212 209 215 219 222 224 220 204
309 303 299 295 291 285 279 275 269 263 257 254 249 246 245 245 244 242 243 244 243 246 249 247 245 241 237 235 233 235 231 228 233 241 236 225 217 212 210 213 212 199 201
308 303 298 295 292 288 283 277 270 264 258 253 249 245 244 244 244 243 240 239 241 244 247 249 250 245 240 238 236 235 237 232 226 234 233 222 217 208 211 212 204 195 187
306 302 298 295 292 287 282 278 272 265 261 256 251 247 244 241 239 238 236 236 237 240 242 243 245 248 262 257 254 243 236 233 229 227 226 220 216 205 209 212 203 190 174
306 303 300 297 294 289 283 278 273 267 262 260 253 249 245 243 232 222 234 243 242 239 239 240 242 231 229 231 248 258 260 250 243 237 230 223 219 216 211 209 198 193 195
308 306 304 300 296 291 288 285 279 273 267 260 255 249 247 244 220 209 220 241 244 242 241 239 242 237 221 232 225 226 237 243 249 253 249 238 223 216 211 206 202 203 195
311 310 308 305 300 296 292 287 284 276 268 261 256 250 248 242 212 207 210 233 242 242 240 238 241 247 240 239 244 238 235 229 226 231 243 246 239 227 216 213 194 181 159
313 313 311 308 304 299 293 286 283 278 269 260 256 252 246 240 215 205 207 231 235 238 239 237 237 240 231 217 241 246 244 239 228 231 243 245 250 229 216 201 183 181 176
318 316 311 308 304 298 293 288 282 277 273 267 259 251 247 241 216 202 207 234 236 235 233 234 230 235 228 203 232 241 240 236 230 211 211 215 215 207 203 210 199 192 177
317 314 310 308 305 299 295 290 285 279 273 265 263 255 247 241 216 199 204 236 241 237 235 231 225 196 208 210 230 246 249 251 238 226 214 209 206 203 202 205 209 202 189
314 313 312 311 309 308 304 296 289 283 276 263 255 254 245 231 223 202 201 221 251 251 247 245 221 172 191 207 223 238 237 236 239 229 216 208 203 201 198 197 198 203 202
316 316 315 314 310 308 305 301 295 283 277 271 262 255 247 231 201 197 204 212 226 244 251 258 210 180 200 213 223 223 217 222 226 224 218 212 204 197 186 179 173 168 159
319 320 320 319 318 319 314 310 305 299 294 283 273 265 255 235 216 201 200 199 205 222 236 212 204 211 229 247 218 206 216 219 216 220 217 210 196 182 179 173 166 161 154
322 323 323 326 327 323 325 334 329 341 350 324 316 305 302 300 27 16 307 249 231 220 227 221 219 214 215 217 218 213 209 205 208 216 211 196 187 182 179 173 169 164 159
325 329 330 332 334 332 335 4 42 347 17 5 339 329 353 46 36 24 25 28 60 174 239 231 227 228 227 220 214 210 208 205 203 204 198 189 185 178 173 171 171 165 158
327 331 330 335 338 342 348 352 10 84 100 69 34 356 326 348 10 38 136 209 202 206 232 240 236 238 237 226 217 209 204 201 196 196 192 185 180 172 168 168 166 161 158
331 333 329 336 341 348 352 355 1 13 62 103 96 73 55 196 194 200 208 217 205 214 238 244 242 234 232 222 207 197 194 187 182 185 186 179 173 168 166 166 164 161 156
341 348 345 344 349 359 4 9 11 15 33 61 85 108 126 164 187 206 226 245 248 223 222 232 240 237 226 210 194 183 176 173 172 173 171 166 163 161 161 162 158 154 154
352 355 344 346 359 12 15 17 22 24 40 60 58 49 136 206 196 186 224 254 266 264 234 235 237 235 206 184 179 172 162 155 159 160 154 154 155 155 155 155 156 158 159
348 357 346 355 14 15 16 20 26 32 39 48 48 36 340 316 357 313 253 264 325 350 278 246 222 167 163 160 159 155 148 144 146 150 150 152 152 150 152 154 159 160 155
349 356 6 13 18 20 13 22 33 40 43 46 52 83 326 315 19 29 27 41 52 46 332 225 185 151 156 158 157 154 144 140 144 147 145 145 147 149 150 155 159 155 149
356 1 8 15 19 17 9 25 27 31 37 42 42 42 52 33 41 43 43 40 44 49 48 59 89 103 116 129 136 139 136 137 139 142 140 139 141 146 148 150 152 151 153
1 5 8 13 16 18 24 22 22 28 30 34 37 41 45 48 58 63 55 51 54 58 55 55 71 90 101 105 113 118 116 123 140 146 144 142 143 146 145 147 151 152 151
7 10 15 18 20 22 24 23 22 24 29 32 35 37 48 53 59 69 67 63 67 67 71 77 80 86 96 100 100 98 85 78 96 130 144 141 142 143 145 148 150 152 151
15 16 22 25 23 22 24 22 25 26 31 35 39 41 45 50 53 56 58 62 70 74 77 80 84 86 93 95 91 88 83 76 62 47 128 137 142 145 148 147 150 152 155